Location: Hiram
(41.3130°N, 81.1440°W)
Time: 13:12:24
(UTC-05:00)

Amateur Radio Satellites - All Passes

Search period start: 20 January 2017 12:42
Search period end: 21 January 2017 12:42
Location: Hiram, 41.3130°N, 81.1440°W

Satellite Date Start Highest point End Downlink Frequencies (MHz)
Time Altitude Azimuth
CUBEBUG 1 20 Jan 12:47:25 12:51:34 47° 288° (WNW) 12:55:42 437.445
DUCHIFAT 1 20 Jan 12:52:04 12:52:49 10° 270° (W) 12:53:34 145.980
AO-85 20 Jan 12:52:27 12:54:29 13° 109° (ESE) 12:56:28 145.980
Gurwin Techsat 1B 20 Jan 12:53:30 12:58:24 40° 69° (ENE) 13:03:20 435.225
AIST 1 20 Jan 12:57:40 12:58:22 10° 83° (E) 12:59:04
AISAT 20 Jan 13:03:27 13:07:43 51° 287° (WNW) 13:11:56 437.250
Cosmos 2491 20 Jan 13:05:14 13:13:49 54° 77° (ENE) 13:22:24 435.465 / 435.565
AO-7 20 Jan 13:08:02 13:13:40 20° 50° (NE) 13:19:19 29.400- 29.500
YUBILEINY 20 Jan 13:13:22 13:20:04 25° 81° (E) 13:26:46 435.215
50 SAT 20 Jan 13:15:24 13:18:44 38° 288° (WNW) 13:22:02 437.505
ITAMSAT 1 20 Jan 13:24:59 13:28:11 17° 61° (ENE) 13:31:23 435.822/435.867
BUGSAT 1 20 Jan 13:26:28 13:27:44 11° 269° (W) 13:29:00 437.445
ESTCUBE 1 20 Jan 13:26:58 13:29:09 13° 298° (WNW) 13:31:20 437.505/2401.250
CUSAT 1 20 Jan 13:36:52 13:44:19 41° 71° (ENE) 13:51:17 437.405
VELOX 1 20 Jan 13:37:25 13:40:58 24° 293° (WNW) 13:44:30 145.980
TISAT 1 20 Jan 13:58:30 14:02:40 66° 102° (ESE) 14:06:48 437.305
ITUPSAT 1 20 Jan 14:03:42 14:06:20 15° 91° (E) 14:08:58 437.325
SPROUT 20 Jan 14:07:28 14:09:58 15° 296° (WNW) 14:12:27 437.525
UKube-1 20 Jan 14:08:44 14:12:30 30° 291° (WNW) 14:16:16 .
DX 1 20 Jan 14:09:50 14:13:13 23° 294° (WNW) 14:16:36 434.975-435.025
Oscar 19 20 Jan 14:21:17 14:24:47 18° 268° (W) 14:28:17 437.125/150
DANDE 20 Jan 14:25:26 14:32:30 37° 71° (ENE) 14:40:03 436.750
Cosmos 2504 20 Jan 14:28:03 14:35:58 41° 88° (E) 14:43:28 435.465 / 435.565
AO-85 20 Jan 14:29:43 14:34:27 72° 304° (NW) 14:38:49 145.980
AIST 1 20 Jan 14:31:00 14:35:21 65° 279° (W) 14:39:41
Gurwin Techsat 1B 20 Jan 14:34:05 14:38:26 26° 265° (W) 14:42:51 435.225
BEESAT 20 Jan 14:37:03 14:41:21 32° 97° (E) 14:45:38 436.000
SWISSCUBE 20 Jan 14:38:35 14:43:03 38° 98° (E) 14:47:29 437.505
AO-7 20 Jan 14:56:53 15:05:15 84° 70° (ENE) 15:13:40 29.400- 29.500
ITAMSAT 1 20 Jan 15:01:58 15:07:06 65° 258° (WSW) 15:12:15 435.822/435.867
Cosmos 2491 20 Jan 15:02:43 15:10:13 33° 276° (W) 15:17:43 435.465 / 435.565
YUBILEINY 20 Jan 15:07:13 15:16:00 70° 280° (W) 15:24:51 435.215
CUSAT 1 20 Jan 15:18:49 15:26:18 45° 270° (W) 15:33:13 437.405
TISAT 1 20 Jan 15:36:21 15:37:44 11° 298° (WNW) 15:39:07 437.305
SO-50 20 Jan 15:38:26 15:41:36 18° 41° (NE) 15:44:43 436.795
ITUPSAT 1 20 Jan 15:39:48 15:44:33 60° 287° (WNW) 15:49:16 437.325
BEESAT 3 20 Jan 15:44:50 15:47:43 20° 112° (ESE) 15:50:38 437.485
M-CUBED/EXP-1 PRIME 20 Jan 16:01:08 16:03:27 18° 99° (E) 16:05:43 437.505
DANDE 20 Jan 16:07:51 16:15:24 53° 267° (W) 16:23:26 436.750
STARS 20 Jan 16:07:59 16:09:26 11° 90° (E) 16:10:52 437.465
MOZHAYETS 4 20 Jan 16:09:28 16:14:09 88° 292° (WNW) 16:18:48
AO-85 20 Jan 16:14:01 16:15:32 11° 322° (NW) 16:17:01 145.980
BRITE-PL 20 Jan 16:14:38 16:20:12 58° 73° (ENE) 16:25:43 437.365/2234.400
BEESAT 20 Jan 16:14:59 16:19:00 27° 293° (WNW) 16:23:00 436.000
CUTE-I 20 Jan 16:16:17 16:18:12 12° 58° (ENE) 16:20:07 437.470
SWISSCUBE 20 Jan 16:16:48 16:20:36 24° 294° (WNW) 16:24:24 437.505
GOMX 1 20 Jan 16:19:39 16:24:09 28° 68° (ENE) 16:28:29 467.674
Cosmos 2504 20 Jan 16:21:07 16:29:15 43° 285° (WNW) 16:36:59 435.465 / 435.565
O/OREOS (USA 219) 20 Jan 16:27:43 16:32:14 82° 68° (ENE) 16:36:45 437.305
BEESAT 2 20 Jan 16:29:12 16:32:31 26° 114° (ESE) 16:35:52 435.950
AUBIESAT-1 20 Jan 16:37:02 16:40:15 41° 104° (ESE) 16:43:22 437.475
KKS-1 20 Jan 16:48:51 16:53:17 75° 104° (ESE) 16:57:41 437.445
AO-7 20 Jan 16:53:05 16:58:53 20° 268° (W) 17:04:44 29.400- 29.500
CUBESAT XI-V 20 Jan 16:55:28 16:59:57 43° 98° (E) 17:04:21 437.345
HORYU 2 20 Jan 16:56:24 17:00:47 68° 73° (ENE) 17:05:10 437.375
Cubesat XI-IV 20 Jan 16:56:32 17:00:56 27° 65° (ENE) 17:05:21 437.490
DOVE 4 20 Jan 16:58:52 17:02:53 25° 68° (ENE) 17:06:45 437.250
NOAA 18 20 Jan 17:02:25 17:06:08 19° 61° (ENE) 17:09:52 137.9125
NOAA 15 20 Jan 17:04:48 17:09:31 34° 67° (ENE) 17:14:15 137.62
YUBILEINY 20 Jan 17:10:22 17:14:38 14° 303° (WNW) 17:18:57 435.215
SO-50 20 Jan 17:18:01 17:22:29 63° 241° (WSW) 17:26:53 436.795
BEESAT 3 20 Jan 17:21:31 17:25:06 34° 309° (NW) 17:28:45 437.485
M-CUBED/EXP-1 PRIME 20 Jan 17:35:15 17:37:58 23° 296° (WNW) 17:40:36 437.505
LilacSat-2 20 Jan 17:39:03 17:42:47 67° 76° (ENE) 17:46:34 437.200
STARS 20 Jan 17:41:52 17:46:10 63° 287° (WNW) 17:50:30 437.465
CUTE-I 20 Jan 17:52:06 17:57:24 85° 76° (ENE) 18:02:45 437.470
BRITE-PL 20 Jan 17:54:50 17:58:56 20° 269° (W) 18:03:03 437.365/2234.400
GOMX 1 20 Jan 17:57:00 18:02:02 39° 263° (W) 18:06:54 467.674
BEESAT 2 20 Jan 18:06:45 18:10:13 28° 311° (NW) 18:13:43 435.950
GONETS M04 20 Jan 18:07:51 18:08:09 10° 71° (ENE) 18:08:28
CUTE 1.7 + AOD 2 20 Jan 18:09:08 18:11:40 16° 65° (ENE) 18:14:13 437.475
AUBIESAT-1 20 Jan 18:13:15 18:14:18 11° 301° (WNW) 18:15:20 437.475
HO-68 20 Jan 18:18:13 18:24:45 39° 64° (ENE) 18:31:18 435.675
CINEMA 3 20 Jan 18:26:21 18:30:31 42° 73° (ENE) 18:34:33 145.822/145.860
KKS-1 20 Jan 18:27:50 18:29:12 11° 299° (WNW) 18:30:35 437.445
AIST 2 20 Jan 18:31:37 18:31:47 10° 107° (ESE) 18:31:57 435.215
CUBESAT XI-V 20 Jan 18:33:35 18:37:00 20° 295° (WNW) 18:40:23 437.345
DOVE 4 20 Jan 18:35:48 18:40:25 36° 263° (W) 18:44:49 437.250
Cubesat XI-IV 20 Jan 18:35:52 18:40:48 39° 262° (W) 18:45:47 437.490
HORYU 2 20 Jan 18:36:44 18:37:46 11° 270° (W) 18:38:48 437.375
CANX-2 20 Jan 18:36:49 18:40:41 35° 71° (ENE) 18:44:35 2200.000
NOAA 18 20 Jan 18:40:50 18:46:17 63° 258° (WSW) 18:51:44 137.9125
Cosmos 2499 20 Jan 18:42:10 18:48:42 26° 84° (E) 18:54:54 435.465 / 435.565
NOAA 15 20 Jan 18:44:37 18:49:16 31° 264° (W) 18:53:56 137.62
STRAND 1 20 Jan 18:44:40 18:48:08 18° 92° (E) 18:51:36 437.568
SEEDS 20 Jan 18:47:54 18:51:26 27° 69° (ENE) 18:55:01 437.485
COMPASS 1 20 Jan 18:53:26 18:56:34 21° 67° (ENE) 18:59:42 437.405
AAUSAT CUBESAT 2 20 Jan 19:04:31 19:07:39 21° 67° (ENE) 19:10:47 437.432
CUBEBUG 2 20 Jan 19:20:04 19:23:54 36° 71° (ENE) 19:27:43 437.445
CUTE-I 20 Jan 19:36:30 19:38:07 11° 272° (W) 19:39:43 437.470
CUTE 1.7 + AOD 2 20 Jan 19:43:00 19:47:05 47° 261° (W) 19:51:14 437.475
FUNcube-1 20 Jan 19:43:37 19:46:53 23° 68° (ENE) 19:50:10 145.935
UWE-3 20 Jan 19:47:51 19:51:48 46° 73° (ENE) 19:55:47 435.000/436.395/437.385
GONETS M04 20 Jan 19:54:30 20:03:01 63° 92° (E) 20:11:36
CINEMA 3 20 Jan 20:04:59 20:07:49 17° 267° (W) 20:10:36 145.822/145.860
AIST 2 20 Jan 20:05:30 20:09:37 74° 305° (NW) 20:13:48 435.215
HO-68 20 Jan 20:05:40 20:12:23 42° 262° (W) 20:19:09 435.675
ZACube-1 20 Jan 20:06:04 20:10:00 44° 72° (ENE) 20:13:57 437.345
CANX-2 20 Jan 20:13:31 20:16:37 20° 267° (W) 20:19:45 2200.000
DELFI C3 20 Jan 20:19:53 20:22:36 18° 66° (ENE) 20:25:20 145.870
STRAND 1 20 Jan 20:22:37 20:27:37 54° 289° (WNW) 20:32:37 437.568
SEEDS 20 Jan 20:23:33 20:27:04 25° 265° (W) 20:30:37 437.485
COMPASS 1 20 Jan 20:28:05 20:31:53 33° 263° (W) 20:35:43 437.405
Cosmos 2499 20 Jan 20:32:54 20:41:16 64° 281° (W) 20:49:04 435.465 / 435.565
AAUSAT CUBESAT 2 20 Jan 20:39:08 20:42:53 33° 263° (W) 20:46:42 437.432
Oscar 11 20 Jan 20:41:32 20:45:50 84° 254° (WSW) 20:50:12 145.826/435.025
CUBEBUG 2 20 Jan 20:57:51 21:00:39 17° 267° (W) 21:03:28 437.445
FUNcube-1 20 Jan 21:19:26 21:22:59 28° 264° (W) 21:26:35 145.935
AO-85 20 Jan 21:22:47 21:24:10 11° 39° (NE) 21:25:32 145.980
ANTELSAT 20 Jan 21:25:38 21:27:43 13° 91° (E) 21:29:50 437.575/2403.000
UWE-3 20 Jan 21:26:26 21:28:32 14° 269° (W) 21:30:39 435.000/436.395/437.385
ISS 20 Jan 21:43:22 21:46:04 24° 135° (SE) 21:48:46 145.825
JAS-2 20 Jan 21:43:36 21:46:48 13° 87° (E) 21:50:03 435.910
ZACube-1 20 Jan 21:44:14 21:46:32 14° 269° (W) 21:48:50 437.345
AIST 2 20 Jan 21:47:37 21:48:50 11° 323° (NW) 21:50:03 435.215
HUMSAT D 20 Jan 21:49:57 21:54:02 78° 256° (WSW) 21:58:12 437.325/437.525
GONETS M04 20 Jan 21:53:08 22:00:25 29° 292° (WNW) 22:07:47
DELFI C3 20 Jan 21:53:26 21:57:08 36° 263° (W) 22:00:52 145.870
PRISM 20 Jan 22:02:17 22:06:24 75° 285° (WNW) 22:10:28 437.425
RS-15 20 Jan 22:04:39 22:13:05 23° 99° (E) 22:21:43 29.354- 29.394
CUBEBUG 1 20 Jan 22:09:04 22:11:19 14° 63° (ENE) 22:13:34 437.445
AISAT 20 Jan 22:26:17 22:28:39 14° 63° (ENE) 22:31:01 437.250
UNISAT 6 20 Jan 22:31:44 22:36:10 70° 102° (ESE) 22:40:41 437.425
Cosmos 2499 20 Jan 22:33:27 22:35:57 11° 301° (WNW) 22:38:25 435.465 / 435.565
TIGRISAT 20 Jan 22:44:57 22:49:25 89° 105° (ESE) 22:53:57 435.000
BY70-1 20 Jan 22:45:04 22:48:01 62° 259° (W) 22:51:13 436.1900
ESTCUBE 1 20 Jan 22:47:33 22:52:00 59° 73° (ENE) 22:56:28 437.505/2401.250
VELOX 1 20 Jan 22:57:58 23:01:46 28° 68° (ENE) 23:05:33 145.980
ANTELSAT 20 Jan 23:00:23 23:04:45 59° 286° (WNW) 23:09:12 437.575/2403.000
AO-85 20 Jan 23:01:14 23:05:10 87° 231° (SW) 23:09:04 145.980
NANOSAT C BR1 20 Jan 23:04:01 23:05:53 13° 91° (E) 23:07:44 145.865
ISS 20 Jan 23:19:19 23:22:25 40° 331° (NNW) 23:25:31 145.825
SPROUT 20 Jan 23:23:37 23:27:30 36° 71° (ENE) 23:31:25 437.525
YUBILEINY 20 Jan 23:24:26 23:27:12 12° 55° (NE) 23:29:57 435.215
JAS-2 20 Jan 23:25:25 23:32:40 74° 103° (ESE) 23:40:26 435.910
UKube-1 20 Jan 23:27:43 23:30:57 21° 66° (ENE) 23:34:12 .
DX 1 20 Jan 23:28:47 23:32:33 29° 68° (ENE) 23:36:20 434.975-435.025
CUBEBUG 1 20 Jan 23:42:45 23:47:06 59° 259° (W) 23:51:28 437.445
50 SAT 20 Jan 23:49:21 23:52:55 77° 75° (ENE) 23:56:30 437.505
QB50P1 20 Jan 23:54:45 23:58:52 52° 100° (E) 00:02:59 145.935-145.965
POLYITAN 1 20 Jan 23:59:00 00:03:11 59° 100° (E) 00:07:22 437.675
AISAT 21 Jan 00:00:14 00:04:37 58° 259° (W) 00:09:01 437.250
QB50P2 21 Jan 00:00:15 00:04:28 66° 101° (E) 00:08:41 145.880/145.840
BEESAT 3 21 Jan 00:01:24 00:03:54 16° 43° (NE) 00:06:23 437.485
PCSat 21 Jan 00:07:04 00:11:41 29° 109° (ESE) 00:16:19 145.827
UNISAT 6 21 Jan 00:10:31 00:12:20 12° 297° (WNW) 00:14:09 437.425
RS-15 21 Jan 00:11:54 00:23:47 89° 121° (ESE) 00:36:12 29.354- 29.394
POPSAT HIP 1 21 Jan 00:21:40 00:25:54 78° 283° (WNW) 00:30:06 437.405
Cosmos 2504 21 Jan 00:23:36 00:25:56 12° 58° (ENE) 00:28:14 435.465 / 435.565
ESTCUBE 1 21 Jan 00:26:58 00:29:10 13° 270° (W) 00:31:21 437.505/2401.250
DUCHIFAT 1 21 Jan 00:31:57 00:36:07 69° 285° (WNW) 00:40:18 145.980
VELOX 1 21 Jan 00:34:23 00:38:09 27° 264° (W) 00:41:56 145.980
NANOSAT C BR1 21 Jan 00:37:48 00:41:55 54° 287° (WNW) 00:46:01 145.865
AIST 1 21 Jan 00:38:15 00:41:59 28° 75° (ENE) 00:45:40
BEESAT 2 21 Jan 00:46:46 00:49:46 19° 45° (NE) 00:52:45 435.950
TISAT 1 21 Jan 00:49:49 00:53:49 47° 73° (ENE) 00:57:50 437.305
Oscar 19 21 Jan 00:52:34 00:56:12 19° 92° (E) 00:59:48 437.125/150
ISS 21 Jan 00:57:36 00:59:33 15° 351° (N) 01:01:32 145.825
SPROUT 21 Jan 01:00:32 01:03:33 19° 267° (W) 01:06:34 437.525
UKube-1 21 Jan 01:02:47 01:06:45 35° 262° (W) 01:10:44 .
BUGSAT 1 21 Jan 01:04:41 01:08:44 83° 284° (WNW) 01:12:47 437.445
DX 1 21 Jan 01:05:04 01:08:42 25° 264° (W) 01:12:20 434.975-435.025
ITUPSAT 1 21 Jan 01:10:26 01:13:39 18° 63° (ENE) 01:16:52 437.325
Gurwin Techsat 1B 21 Jan 01:10:50 01:13:54 15° 90° (E) 01:16:57 435.225
JAS-2 21 Jan 01:11:36 01:17:05 25° 299° (WNW) 01:22:54 435.910
YUBILEINY 21 Jan 01:17:27 01:26:10 60° 78° (ENE) 01:34:48 435.215
QB50P1 21 Jan 01:31:56 01:34:12 14° 296° (WNW) 01:36:28 145.935-145.965
POLYITAN 1 21 Jan 01:36:33 01:38:29 13° 297° (WNW) 01:40:25 437.675
BEESAT 3 21 Jan 01:37:56 01:41:53 60° 241° (WSW) 01:45:48 437.485
QB50P2 21 Jan 01:38:11 01:39:43 12° 298° (WNW) 01:41:15 145.880/145.840
BEESAT 21 Jan 01:43:21 01:47:42 38° 69° (ENE) 01:52:06 436.000
SWISSCUBE 21 Jan 01:44:53 01:49:22 44° 71° (ENE) 01:53:54 437.505
PCSat 21 Jan 01:49:49 01:54:53 40° 307° (NW) 02:00:00 145.827
Cosmos 2491 21 Jan 02:06:06 02:14:36 62° 92° (E) 02:23:09 435.465 / 435.565
Cosmos 2504 21 Jan 02:13:31 02:20:56 71° 80° (E) 02:28:02 435.465 / 435.565
AIST 1 21 Jan 02:16:07 02:19:24 22° 272° (W) 02:22:39
BEESAT 2 21 Jan 02:23:53 02:27:46 45° 243° (WSW) 02:31:36 435.950
RS-15 21 Jan 02:27:16 02:38:03 35° 328° (NNW) 02:49:07 29.354- 29.394
TISAT 1 21 Jan 02:27:29 02:29:42 14° 268° (W) 02:31:55 437.305
PHONESAT 2.4 21 Jan 02:30:08 02:32:14 35° 164° (SSE) 02:34:21 2401.200-2431.200
Oscar 19 21 Jan 02:30:48 02:35:49 51° 289° (WNW) 02:40:46 437.125/150
ISS 21 Jan 02:34:59 02:37:02 15° 11° (N) 02:39:05 145.825
CUSAT 1 21 Jan 02:38:30 02:42:58 30° 85° (E) 02:48:28 437.405
M-CUBED/EXP-1 PRIME 21 Jan 02:46:00 02:49:50 31° 66° (ENE) 02:53:27 437.505
ITUPSAT 1 21 Jan 02:46:27 02:51:04 51° 260° (W) 02:55:43 437.325
Gurwin Techsat 1B 21 Jan 02:49:01 02:54:18 66° 287° (WNW) 02:59:33 435.225
AIST 2 21 Jan 02:50:28 02:51:40 11° 37° (NE) 02:52:52 435.215
AO-7 21 Jan 02:59:23 03:06:13 27° 95° (E) 03:12:59 29.400- 29.500
STARS 21 Jan 03:05:11 03:06:39 12° 61° (ENE) 03:08:07 437.465
MOZHAYETS 4 21 Jan 03:11:00 03:15:34 87° 72° (ENE) 03:20:11
ITAMSAT 1 21 Jan 03:14:45 03:19:43 44° 99° (E) 03:24:41 435.822/435.867
YUBILEINY 21 Jan 03:15:09 03:22:21 29° 278° (W) 03:29:30 435.215
AUBIESAT-1 21 Jan 03:21:45 03:25:58 62° 69° (ENE) 03:29:55 437.475
BEESAT 21 Jan 03:21:52 03:25:34 23° 266° (W) 03:29:19 436.000
SWISSCUBE 21 Jan 03:23:55 03:27:20 20° 267° (W) 03:30:47 437.505
DANDE 21 Jan 03:35:49 03:38:50 21° 83° (E) 03:42:29 436.750
KKS-1 21 Jan 03:46:32 03:50:56 69° 75° (ENE) 03:55:22 437.445
CUBESAT XI-V 21 Jan 03:58:29 04:02:53 42° 71° (ENE) 04:07:20 437.345
PHONESAT 2.4 21 Jan 04:03:51 04:06:07 73° 178° (S) 04:08:22 2401.200-2431.200
Cosmos 2491 21 Jan 04:04:43 04:12:00 29° 292° (WNW) 04:19:21 435.465 / 435.565
Cosmos 2504 21 Jan 04:08:33 04:13:23 19° 280° (W) 04:18:08 435.465 / 435.565
ISS 21 Jan 04:10:58 04:14:08 46° 31° (NNE) 04:17:16 145.825
CUSAT 1 21 Jan 04:19:42 04:24:36 39° 290° (WNW) 04:30:49 437.405
M-CUBED/EXP-1 PRIME 21 Jan 04:20:43 04:24:16 24° 259° (WSW) 04:27:39 437.505
BRITE-PL 21 Jan 04:21:32 04:24:34 17° 89° (E) 04:27:27 437.365/2234.400
AIST 2 21 Jan 04:26:40 04:30:55 71° 57° (ENE) 04:35:08 435.215
STARS 21 Jan 04:38:02 04:42:23 73° 257° (WSW) 04:46:47 437.465
RS-15 21 Jan 04:46:34 04:55:48 23° 2° (N) 05:05:01 29.354- 29.394
HORYU 2 21 Jan 04:49:00 04:50:59 13° 91° (E) 04:52:58 437.375
AO-7 21 Jan 04:51:15 04:59:31 67° 293° (WNW) 05:07:43 29.400- 29.500
ITAMSAT 1 21 Jan 04:54:48 04:58:54 24° 296° (WNW) 05:03:00 435.822/435.867
AUBIESAT-1 21 Jan 04:59:08 05:00:35 12° 263° (W) 05:02:02 437.475
DANDE 21 Jan 05:17:36 05:21:09 30° 292° (WNW) 05:25:45 436.750
NOAA 15 21 Jan 05:21:51 05:23:46 12° 89° (E) 05:25:41 137.62
KKS-1 21 Jan 05:26:48 05:27:57 11° 270° (W) 05:29:05 437.445
CUBESAT XI-V 21 Jan 05:37:00 05:40:25 20° 267° (W) 05:43:53 437.345
PHONESAT 2.4 21 Jan 05:37:53 05:39:59 34° 196° (SSW) 05:42:04 2401.200-2431.200
ISS 21 Jan 05:47:55 05:50:23 20° 227° (SW) 05:52:50 145.825
BRITE-PL 21 Jan 05:58:44 06:03:26 48° 288° (WNW) 06:07:46 437.365/2234.400
GOMX 1 21 Jan 05:58:59 06:03:23 65° 101° (E) 06:07:33 467.674
STRAND 1 21 Jan 06:00:23 06:04:35 27° 66° (ENE) 06:08:47 437.568
GONETS M04 21 Jan 06:05:00 06:12:38 31° 69° (ENE) 06:20:13
AIST 2 21 Jan 06:07:32 06:08:48 11° 252° (WSW) 06:10:04 435.215
CUTE-I 21 Jan 06:09:21 06:14:10 34° 97° (E) 06:18:59 437.470
HORYU 2 21 Jan 06:23:30 06:27:54 60° 286° (WNW) 06:32:17 437.375
Cosmos 2499 21 Jan 06:24:29 06:31:15 43° 75° (ENE) 06:37:54 435.465 / 435.565
DOVE 4 21 Jan 06:34:20 06:38:28 58° 100° (E) 06:42:32 437.250
O/OREOS (USA 219) 21 Jan 06:39:49 06:44:18 84° 293° (WNW) 06:48:48 437.305
AO-7 21 Jan 06:46:12 06:50:44 16° 314° (NW) 06:55:17 29.400- 29.500
LilacSat-2 21 Jan 06:46:14 06:50:06 79° 285° (WNW) 06:53:59 437.200
Cubesat XI-IV 21 Jan 06:52:27 06:57:49 83° 104° (ESE) 07:03:10 437.490
NOAA 15 21 Jan 06:58:49 07:04:10 83° 285° (WNW) 07:09:28 137.62
RS-15 21 Jan 07:01:50 07:13:13 39° 36° (NE) 07:24:17 29.354- 29.394
NOAA 18 21 Jan 07:02:47 07:08:09 55° 101° (ESE) 07:13:28 137.9125
CUTE 1.7 + AOD 2 21 Jan 07:27:57 07:31:41 28° 96° (E) 07:35:22 437.475
SO-50 21 Jan 07:31:54 07:36:19 41° 116° (ESE) 07:40:42 436.795
HO-68 21 Jan 07:32:52 07:39:32 40° 98° (E) 07:46:08 435.675
STRAND 1 21 Jan 07:38:53 07:43:34 37° 262° (W) 07:48:18 437.568
GOMX 1 21 Jan 07:39:14 07:40:50 12° 299° (WNW) 07:42:25 467.674
CUTE-I 21 Jan 07:49:28 07:54:08 31° 293° (WNW) 07:58:47 437.470
CANX-2 21 Jan 07:56:56 08:01:15 71° 102° (ESE) 08:05:31 2200.000
CINEMA 3 21 Jan 07:57:14 08:01:26 74° 283° (WNW) 08:05:43 145.822/145.860
GONETS M04 21 Jan 08:01:18 08:09:55 59° 269° (W) 08:18:31
SEEDS 21 Jan 08:06:24 08:10:34 50° 99° (E) 08:14:40 437.485
COMPASS 1 21 Jan 08:10:24 08:14:19 36° 97° (E) 08:18:11 437.405
DOVE 4 21 Jan 08:14:03 08:15:40 12° 297° (WNW) 08:17:16 437.250
Cosmos 2499 21 Jan 08:18:02 08:24:05 31° 274° (W) 08:30:07 435.465 / 435.565
AAUSAT CUBESAT 2 21 Jan 08:20:52 08:24:45 36° 97° (E) 08:28:35 437.432
O/OREOS (USA 219) 21 Jan 08:24:15 08:24:27 10° 311° (NW) 08:24:39 437.305
ANTELSAT 21 Jan 08:25:42 08:27:08 11° 62° (ENE) 08:28:34 437.575/2403.000
Oscar 11 21 Jan 08:29:37 08:32:36 18° 92° (E) 08:35:34 145.826/435.025
Cubesat XI-IV 21 Jan 08:34:29 08:37:10 14° 301° (WNW) 08:39:50 437.490
NOAA 15 21 Jan 08:41:18 08:43:05 12° 303° (WNW) 08:44:52 137.62
NOAA 18 21 Jan 08:44:23 08:48:22 21° 298° (WNW) 08:52:22 137.9125
CUBEBUG 2 21 Jan 08:46:17 08:50:39 88° 103° (ESE) 08:55:08 437.445
PRISM 21 Jan 08:51:02 08:55:11 76° 75° (ENE) 08:59:22 437.425
PCSat 21 Jan 08:54:22 08:58:57 27° 48° (NE) 09:03:30 145.827
CUTE 1.7 + AOD 2 21 Jan 09:03:52 09:07:24 25° 292° (WNW) 09:10:54 437.475
FUNcube-1 21 Jan 09:06:10 09:10:27 50° 99° (E) 09:14:47 145.935
SO-50 21 Jan 09:12:55 09:16:54 27° 314° (NW) 09:20:51 436.795
UWE-3 21 Jan 09:12:56 09:17:18 75° 285° (WNW) 09:21:48 435.000/436.395/437.385
RS-15 21 Jan 09:14:40 09:27:00 78° 242° (WSW) 09:38:49 29.354- 29.394
HO-68 21 Jan 09:20:38 09:27:13 41° 296° (WNW) 09:33:47 435.675
ZACube-1 21 Jan 09:29:42 09:34:07 82° 283° (WNW) 09:38:36 437.345
UNISAT 6 21 Jan 09:30:32 09:34:42 58° 74° (ENE) 09:38:55 437.425
DELFI C3 21 Jan 09:30:38 09:34:02 26° 96° (E) 09:37:24 145.870
HUMSAT D 21 Jan 09:34:03 09:36:53 17° 92° (E) 09:39:42 437.325/437.525
CANX-2 21 Jan 09:35:10 09:36:29 11° 298° (WNW) 09:37:49 2200.000
JAS-2 21 Jan 09:39:29 09:44:00 28° 63° (ENE) 09:48:54 435.910
SEEDS 21 Jan 09:43:26 09:45:49 15° 296° (WNW) 09:48:12 437.485
TIGRISAT 21 Jan 09:43:32 09:47:46 77° 76° (ENE) 09:52:02 435.000
COMPASS 1 21 Jan 09:46:35 09:49:35 19° 294° (WNW) 09:52:35 437.405
AAUSAT CUBESAT 2 21 Jan 09:56:58 09:59:57 19° 293° (WNW) 10:02:54 437.432
NANOSAT C BR1 21 Jan 09:58:02 09:58:27 10° 61° (ENE) 09:58:53 145.865
ANTELSAT 21 Jan 09:59:03 10:03:17 67° 259° (W) 10:07:31 437.575/2403.000
Oscar 11 21 Jan 10:04:48 10:08:54 40° 288° (WNW) 10:12:58 145.826/435.025
PCSat 21 Jan 10:37:21 10:42:34 49° 247° (WSW) 10:47:45 145.827
ESTCUBE 1 21 Jan 10:41:57 10:43:49 12° 90° (E) 10:45:41 437.505/2401.250
FUNcube-1 21 Jan 10:43:36 10:46:17 16° 295° (WNW) 10:49:01 145.935
QB50P1 21 Jan 10:47:02 10:50:55 38° 71° (ENE) 10:54:48 145.935-145.965
POLYITAN 1 21 Jan 10:51:25 10:55:22 43° 72° (ENE) 10:59:21 437.675
QB50P2 21 Jan 10:52:37 10:56:38 47° 73° (ENE) 11:00:41 145.880/145.840
DELFI C3 21 Jan 11:05:32 11:08:43 23° 292° (WNW) 11:11:52 145.870
HUMSAT D 21 Jan 11:08:37 11:12:39 41° 288° (WNW) 11:16:42 437.325/437.525
UNISAT 6 21 Jan 11:10:19 11:11:48 12° 270° (W) 11:13:17 437.425
POPSAT HIP 1 21 Jan 11:13:43 11:17:53 76° 75° (ENE) 11:22:05 437.405
BY70-1 21 Jan 11:19:37 11:22:53 64° 101° (ESE) 11:25:56 436.1900
DUCHIFAT 1 21 Jan 11:23:18 11:27:28 84° 75° (ENE) 11:31:39 145.980
JAS-2 21 Jan 11:23:56 11:28:54 39° 264° (W) 11:34:19 435.910
NANOSAT C BR1 21 Jan 11:29:23 11:33:33 75° 258° (WSW) 11:37:44 145.865
RS-15 21 Jan 11:29:58 11:37:18 19° 264° (W) 11:44:30 29.354- 29.394
CUBEBUG 1 21 Jan 11:31:42 11:35:14 24° 95° (E) 11:38:44 437.445
AISAT 21 Jan 11:50:39 11:54:17 25° 95° (E) 11:57:53 437.250
BUGSAT 1 21 Jan 11:54:01 11:58:02 66° 75° (ENE) 12:02:02 437.445
Oscar 19 21 Jan 12:09:06 12:13:31 29° 66° (ENE) 12:17:58 437.125/150
ESTCUBE 1 21 Jan 12:16:32 12:21:02 63° 286° (WNW) 12:25:29 437.505/2401.250
Cosmos 2491 21 Jan 12:16:41 12:24:15 31° 69° (ENE) 12:31:47 435.465 / 435.565
VELOX 1 21 Jan 12:23:28 12:27:48 54° 100° (E) 12:32:05 145.980
QB50P1 21 Jan 12:23:59 12:26:49 18° 267° (W) 12:29:39 145.935-145.965
YUBILEINY 21 Jan 12:28:29 12:31:28 12° 73° (ENE) 12:34:27 435.215
POLYITAN 1 21 Jan 12:28:50 12:31:22 16° 268° (W) 12:33:54 437.675
QB50P2 21 Jan 12:30:27 12:32:42 14° 268° (W) 12:34:56 145.880/145.840
Gurwin Techsat 1B 21 Jan 12:31:29 12:35:47 26° 65° (ENE) 12:40:06 435.225
